This demonstration page uses our WeatherBlox Daily Observations layout. Learn more.

Left ArrowRight Arrow

40.92945, -100.16068

Hourly Observations for October 5, 2021

Temp ( °F °C ) Dew Point ( °F °C ) Humidity (%) Winds ( mph kmh ) Pressure ( in mb ) Visibility ( mi km ) Precip ( " mm )
12:15 am 00:15 Clear 49 9.7 46 7.5 86 86 N N/A 30.20 1023 10 16 N/A
12:35 am 00:35 Clear 49 9.4 45 7.1 86 86 NNW 3 6 30.21 1023 10 16 N/A
12:55 am 00:55 Clear 49 9.3 45 7.2 87 87 NNW 3 6 30.21 1023 10 16 N/A
1:15 am 01:15 Clear 49 9.2 45 7 86 86 NE 3 6 30.21 1023 10 16 N/A
1:35 am 01:35 Clear 47 8.5 44 6.8 89 89 N N/A 30.22 1023 10 16 N/A
1:55 am 01:55 Clear 48 9.1 45 7 87 87 N N/A 30.22 1023 10 16 N/A
2:15 am 02:15 Clear 46 8 44 6.5 90 90 N N/A 30.23 1024 10 16 N/A
2:35 am 02:35 Clear 46 7.5 43 6.3 92 92 N N/A 30.23 1024 10 16 N/A
2:55 am 02:55 Clear 45 7.3 43 6.2 93 93 WNW 5 7 30.24 1024 10 16 N/A
3:15 am 03:15 Clear 46 7.5 44 6.5 93 93 NW 3 6 30.23 1024 10 16 N/A
3:35 am 03:35 Mostly Cloudy with Mist and Fog 45 7.1 43 6.2 94 94 N N/A 30.24 1024 1 1 N/A
3:55 am 03:55 Mostly Cloudy with Fog 45 7 42 5.8 92 92 NE 3 6 30.24 1024 1 1 N/A
4:15 am 04:15 Clear 46 7.5 43 6.3 92 92 N N/A 30.22 1024 10 16 N/A
4:35 am 04:35 Mostly Cloudy with Fog 45 7 42 5.4 90 90 N N/A 30.24 1024 N/A N/A
4:55 am 04:55 Clear 43 6.3 41 5.1 92 92 N N/A 30.25 1024 10 16 N/A
5:15 am 05:15 Clear 43 6.2 41 5.1 93 93 NW 5 7 30.25 1024 10 16 N/A
5:35 am 05:35 Clear 42 5.8 40 4.7 93 93 WNW 7 11 30.26 1025 10 16 N/A
5:55 am 05:55 Clear 44 6.5 41 5 90 90 NNW 3 6 30.25 1025 10 16 N/A
6:15 am 06:15 Clear 44 6.4 40 4.7 89 89 WNW 5 7 30.26 1025 10 16 N/A
6:35 am 06:35 Clear 43 6 40 4.6 91 91 N N/A 30.27 1025 10 16 N/A
6:55 am 06:55 Clear 42 5.7 41 4.8 94 94 W 5 7 30.27 1025 10 16 N/A
7:15 am 07:15 Clear 42 5.7 41 4.8 94 94 WNW 5 7 30.27 1025 10 16 N/A
7:35 am 07:35 Clear 42 5.7 40 4.6 93 93 WNW 5 7 30.28 1025 10 16 N/A
7:55 am 07:55 Sunny 42 5.7 40 4.7 93 93 WNW 3 6 30.28 1025 10 16 N/A
8:35 am 08:35 Sunny 46 7.7 44 6.6 93 93 WNW 3 6 30.27 1025 10 16 N/A
8:55 am 08:55 Sunny 48 9 45 7.3 89 89 N N/A 30.26 1025 10 16 N/A
9:15 am 09:15 Sunny 51 10.3 46 7.9 85 85 N N/A 30.26 1025 10 16 N/A
9:35 am 09:35 Sunny 53 11.8 48 8.7 81 81 N N/A 30.25 1025 10 16 N/A
9:55 am 09:55 Sunny 56 13.6 49 9.3 75 75 N N/A 30.24 1024 10 16 N/A
10:15 am 10:15 Sunny 59 15.1 49 9.6 70 70 N N/A 30.22 1024 10 16 N/A
10:35 am 10:35 Sunny 62 16.8 46 7.8 56 56 N N/A 30.20 1023 10 16 N/A
10:55 am 10:55 Sunny 65 18.1 48 8.7 54 54 N N/A 30.19 1022 10 16 N/A
11:15 am 11:15 Sunny 67 19.5 49 9.6 53 53 ESE 3 6 30.18 1022 10 16 N/A
11:35 am 11:35 Sunny 70 20.9 48 9.1 47 47 ESE 7 11 30.16 1021 10 16 N/A
11:55 am 11:55 Sunny 71 21.6 47 8.6 43 43 ESE 6 9 30.15 1021 10 16 N/A
12:15 pm 12:15 Sunny 72 22.1 48 9 43 43 ESE 7 11 30.14 1021 10 16 N/A
12:59 pm 12:59 Sunny 73 23 46 8 38 38 ESE 7 11 30.12 1020 10 16 N/A
1:10 pm 13:10 Sunny 74 23.4 46 8 37 37 SE 7 11 30.11 1020 10 16 N/A
1:35 pm 13:35 Sunny 74 23.6 46 7.5 36 36 E 9 15 30.10 1019 10 16 N/A
1:55 pm 13:55 Sunny 75 23.9 45 7 34 34 SE 7 11 30.09 1019 10 16 N/A
2:15 pm 14:15 Sunny 75 24 45 7.3 34 34 SSE 7 11 30.08 1019 10 16 N/A
2:35 pm 14:35 Sunny 76 24.5 44 6.7 32 32 SSE 3 6 30.06 1018 10 16 N/A
2:55 pm 14:55 Sunny 76 24.6 44 6.5 31 31 SE 7 11 30.05 1018 10 16 N/A
3:15 pm 15:15 Sunny 77 25.1 44 6.7 31 31 SSE 7 11 30.05 1018 10 16 N/A
3:35 pm 15:35 Sunny 77 24.9 43 6.3 30 30 ESE 7 11 30.05 1018 10 16 N/A
3:55 pm 15:55 Sunny 77 25 43 6.2 30 30 ESE 7 11 30.04 1017 10 16 N/A
4:15 pm 16:15 Sunny 77 25.2 42 5.8 29 29 ESE 10 17 30.04 1017 10 16 N/A
4:35 pm 16:35 Sunny 77 25.2 43 6.2 30 30 SE 8 13 30.04 1017 10 16 N/A
4:55 pm 16:55 Sunny 77 25.1 40 4.6 27 27 SE 9 15 30.04 1017 10 16 N/A
5:15 pm 17:15 Sunny 77 25 42 5.5 29 29 ESE 12 19 30.03 1017 10 16 N/A
5:35 pm 17:35 Sunny 76 24.5 42 5.4 29 29 ESE 8 13 30.03 1017 10 16 N/A
5:55 pm 17:55 Sunny 75 23.8 43 5.9 32 32 ESE 9 15 30.04 1017 10 16 N/A
6:15 pm 18:15 Sunny 74 23.5 41 5.2 31 31 ESE 9 15 30.03 1017 10 16 N/A
6:35 pm 18:35 Sunny 72 22.2 43 6.1 35 35 ESE 8 13 30.04 1017 10 16 N/A
6:55 pm 18:55 Sunny 69 20.5 44 6.5 40 40 ESE 6 9 30.06 1018 10 16 N/A
7:15 pm 19:15 Clear 67 19.3 43 6.2 43 43 ESE 5 7 30.08 1019 10 16 N/A
7:35 pm 19:35 Clear 63 17.3 44 6.9 51 51 SSE 6 9 30.10 1019 10 16 N/A
7:55 pm 19:55 Clear 62 16.5 45 7.4 55 55 ESE 5 7 30.11 1020 10 16 N/A
8:15 pm 20:15 Clear 61 16.3 45 7.1 55 55 ESE 5 7 30.11 1020 10 16 N/A
8:35 pm 20:35 Clear 61 15.9 44 6.9 55 55 SE 3 6 30.12 1020 10 16 N/A
8:55 pm 20:55 Clear 58 14.2 46 7.6 65 65 N N/A 30.14 1021 10 16 N/A
9:15 pm 21:15 Clear 56 13.5 46 7.5 67 67 N N/A 30.15 1021 10 16 N/A
9:35 pm 21:35 Clear 55 12.6 46 7.5 71 71 ESE 3 6 30.16 1021 10 16 N/A
9:55 pm 21:55 Clear 52 11.2 46 7.5 78 78 E 3 6 30.17 1022 10 16 N/A
10:15 pm 22:15 Clear 53 11.7 45 7.2 74 74 N N/A 30.17 1022 10 16 N/A
10:35 pm 22:35 Clear 51 10.3 45 7.2 81 81 N N/A 30.18 1022 10 16 N/A
10:55 pm 22:55 Clear 51 10.4 45 7.2 81 81 N N/A 30.18 1022 10 16 N/A
11:15 pm 23:15 Clear 51 10.6 45 7.2 80 80 ESE 3 6 30.18 1022 10 16 N/A
11:35 pm 23:35 Clear 49 9.4 44 6.8 84 84 N N/A 30.19 1022 10 16 N/A
11:55 pm 23:55 Clear 49 9.2 44 6.6 84 84 N N/A 30.19 1022 10 16 N/A

Powered by AerisWeather